Location: Berlin
(38.3226°N, 75.2177°W)
Time: 15:19:23
(UTC+00:00)

Cosmos 2344 - Pass Details

Date: 26 October 2020
Orbit: 1246 x 2997 km, 63.3° (Epoch: 23 November)

Event Time Altitude Azimuth Distance (km) Brightness Sun altitude
Exits shadow 09:26:58 32° 304° (NW) 2,012 4.2 -23.0°
Maximum altitude 09:27:56 33° 318° (NW) 1,987 4.3 -22.8°
Drops below altitude 10° 09:34:59 10° 21° (NNE) 3,454 6.1 -21.4°
Sets 09:38:30 0° 32° (NNE) 4,600 6.9 -20.8°
